Time,TemperatureF,DewpointF,PressureIn,WindDirection,WindDirectionDegrees,WindSpeedMPH,WindSpeedGustMPH,Humidity,HourlyPrecipIn,Conditions,Clouds,dailyrainin,SoftwareType,DateUTC
2013-01-24 00:00:00,12.6,6.5,30.59,ENE,58,1.0,1.0,76,0.00,,,0.00,Wunderground v.1.15,2013-01-24 06:00:00,
2013-01-24 00:10:00,12.1,6.3,30.59,ESE,117,1.0,13.0,77,0.00,,,0.00,Wunderground v.1.15,2013-01-24 06:10:00,
2013-01-24 00:20:00,11.5,6.0,30.59,ESE,111,2.0,2.0,78,0.00,,,0.00,Wunderground v.1.15,2013-01-24 06:20:00,
2013-01-24 00:30:00,10.9,5.7,30.58,East,79,2.0,13.0,79,0.00,,,0.00,Wunderground v.1.15,2013-01-24 06:30:00,
2013-01-24 00:40:00,10.3,5.1,30.57,East,86,2.0,13.0,79,0.00,,,0.00,Wunderground v.1.15,2013-01-24 06:40:00,
2013-01-24 00:50:00,9.9,5.0,30.58,East,79,2.0,2.0,80,0.00,,,0.00,Wunderground v.1.15,2013-01-24 06:50:00,
2013-01-24 01:00:00,9.4,4.5,30.58,East,94,1.0,13.0,80,0.00,,,0.00,Wunderground v.1.15,2013-01-24 07:00:00,
2013-01-24 01:10:00,9.5,4.8,30.58,ESE,117,1.0,1.0,81,0.00,,,0.00,Wunderground v.1.15,2013-01-24 07:10:00,
2013-01-24 01:20:00,9.3,4.6,30.58,East,89,1.0,13.0,81,0.00,,,0.00,Wunderground v.1.15,2013-01-24 07:20:00,
2013-01-24 01:30:00,8.8,4.2,30.59,East,91,1.0,13.0,81,0.00,,,0.00,Wunderground v.1.15,2013-01-24 07:30:00,
2013-01-24 01:40:00,8.5,4.1,30.59,ESE,112,1.0,1.0,82,0.00,,,0.00,Wunderground v.1.15,2013-01-24 07:40:00,
2013-01-24 01:50:00,8.3,3.9,30.58,East,94,2.0,2.0,82,0.00,,,0.00,Wunderground v.1.15,2013-01-24 07:50:00,
2013-01-24 02:00:00,8.0,3.9,30.58,ESE,110,2.0,2.0,83,0.00,,,0.00,Wunderground v.1.15,2013-01-24 08:00:00,
2013-01-24 02:10:00,7.4,3.3,30.57,ENE,75,2.0,13.0,83,0.00,,,0.00,Wunderground v.1.15,2013-01-24 08:10:00,
2013-01-24 02:20:00,7.2,3.4,30.57,ENE,63,3.0,13.0,84,0.00,,,0.00,Wunderground v.1.15,2013-01-24 08:20:00,
2013-01-24 02:30:00,7.2,3.6,30.57,East,81,3.0,13.0,85,0.00,,,0.00,Wunderground v.1.15,2013-01-24 08:30:00,
2013-01-24 02:40:00,7.0,3.4,30.57,East,80,3.0,13.0,85,0.00,,,0.00,Wunderground v.1.15,2013-01-24 08:40:00,
2013-01-24 02:50:00,6.9,3.3,30.56,East,84,3.0,13.0,85,0.00,,,0.00,Wunderground v.1.15,2013-01-24 08:50:00,
2013-01-24 03:00:00,6.7,3.1,30.56,East,87,3.0,3.0,85,0.00,,,0.00,Wunderground v.1.15,2013-01-24 09:00:00,
2013-01-24 03:10:00,6.4,2.9,30.56,ESE,109,2.0,2.0,85,0.00,,,0.00,Wunderground v.1.15,2013-01-24 09:10:00,
2013-01-24 03:20:00,6.2,2.7,30.55,ESE,121,2.0,2.0,85,0.00,,,0.00,Wunderground v.1.15,2013-01-24 09:20:00,
2013-01-24 03:30:00,6.0,2.5,30.56,SE,126,2.0,2.0,85,0.00,,,0.00,Wunderground v.1.15,2013-01-24 09:30:00,
2013-01-24 03:40:00,5.7,1.9,30.55,ESE,122,3.0,3.0,84,0.00,,,0.00,Wunderground v.1.15,2013-01-24 09:40:00,
2013-01-24 03:50:00,5.7,1.9,30.56,SE,126,3.0,3.0,84,0.00,,,0.00,Wunderground v.1.15,2013-01-24 09:50:00,
2013-01-24 04:00:00,5.6,1.8,30.55,ESE,120,4.0,4.0,84,0.00,,,0.00,Wunderground v.1.15,2013-01-24 10:00:00,
2013-01-24 04:10:00,5.4,1.6,30.55,East,84,2.0,6.0,84,0.00,,,0.00,Wunderground v.1.15,2013-01-24 10:10:00,
2013-01-24 04:20:00,5.5,2.0,30.55,East,96,3.0,3.0,85,0.00,,,0.00,Wunderground v.1.15,2013-01-24 10:20:00,
2013-01-24 04:30:00,5.6,2.1,30.56,ESE,112,3.0,6.0,85,0.00,,,0.00,Wunderground v.1.15,2013-01-24 10:30:00,
2013-01-24 04:40:00,5.6,1.8,30.55,SE,124,4.0,6.0,84,0.00,,,0.00,Wunderground v.1.15,2013-01-24 10:40:00,
2013-01-24 04:50:00,5.4,1.6,30.55,SE,136,4.0,4.0,84,0.00,,,0.00,Wunderground v.1.15,2013-01-24 10:50:00,
2013-01-24 05:00:00,5.2,1.7,30.54,SE,129,4.0,6.0,85,0.00,,,0.00,Wunderground v.1.15,2013-01-24 11:00:00,
2013-01-24 05:10:00,5.1,1.6,30.54,ESE,111,4.0,4.0,85,0.00,,,0.00,Wunderground v.1.15,2013-01-24 11:10:00,
2013-01-24 05:20:00,5.0,1.5,30.54,ESE,122,5.0,6.0,85,0.00,,,0.00,Wunderground v.1.15,2013-01-24 11:20:00,
2013-01-24 05:30:00,4.8,1.3,30.54,SE,132,5.0,5.0,85,0.00,,,0.00,Wunderground v.1.15,2013-01-24 11:30:00,
2013-01-24 05:40:00,4.4,0.9,30.54,SSE,150,4.0,6.0,85,0.00,,,0.00,Wunderground v.1.15,2013-01-24 11:40:00,
2013-01-24 05:50:00,4.0,0.5,30.54,ESE,119,4.0,6.0,85,0.00,,,0.00,Wunderground v.1.15,2013-01-24 11:50:00,
2013-01-24 06:00:00,3.7,0.2,30.55,ESE,122,5.0,5.0,85,0.00,,,0.00,Wunderground v.1.15,2013-01-24 12:00:00,
2013-01-24 06:10:00,3.6,0.1,30.53,ESE,120,5.0,9.0,85,0.00,,,0.00,Wunderground v.1.15,2013-01-24 12:10:00,
2013-01-24 06:20:00,3.6,0.4,30.51,ESE,108,8.0,13.0,86,0.00,,,0.00,Wunderground v.1.15,2013-01-24 12:20:00,
2013-01-24 06:30:00,3.3,0.1,30.52,SSE,147,8.0,9.0,86,0.00,,,0.00,Wunderground v.1.15,2013-01-24 12:30:00,
2013-01-24 06:40:00,3.2,0.0,30.51,SE,143,8.0,11.0,86,0.00,,,0.00,Wunderground v.1.15,2013-01-24 12:40:00,
2013-01-24 06:50:00,3.2,0.0,30.51,SSE,149,10.0,10.0,86,0.00,,,0.00,Wunderground v.1.15,2013-01-24 12:50:00,
2013-01-24 07:00:00,3.0,-0.2,30.52,SSE,149,8.0,8.0,86,0.00,,,0.00,Wunderground v.1.15,2013-01-24 13:00:00,
2013-01-24 07:10:00,2.9,-0.3,30.53,SSE,155,6.0,8.0,86,0.00,,,0.00,Wunderground v.1.15,2013-01-24 13:10:00,
2013-01-24 07:20:00,2.9,-0.3,30.52,SSE,155,9.0,9.0,86,0.00,,,0.00,Wunderground v.1.15,2013-01-24 13:20:00,
2013-01-24 07:30:00,3.0,-0.2,30.50,SE,127,9.0,11.0,86,0.00,,,0.00,Wunderground v.1.15,2013-01-24 13:30:00,
2013-01-24 07:40:00,3.1,0.1,30.50,SSE,153,10.0,10.0,87,0.00,,,0.00,Wunderground v.1.15,2013-01-24 13:40:00,
2013-01-24 07:50:00,3.6,0.6,30.50,SE,142,11.0,11.0,87,0.00,,,0.00,Wunderground v.1.15,2013-01-24 13:50:00,
2013-01-24 08:00:00,4.1,1.1,30.50,South,169,8.0,10.0,87,0.00,,,0.00,Wunderground v.1.15,2013-01-24 14:00:00,
2013-01-24 08:10:00,4.6,1.6,30.51,South,174,8.0,8.0,87,0.00,,,0.00,Wunderground v.1.15,2013-01-24 14:10:00,
2013-01-24 08:20:00,5.2,2.2,30.51,SE,139,7.0,7.0,87,0.00,,,0.00,Wunderground v.1.15,2013-01-24 14:20:00,
2013-01-24 08:30:00,5.5,2.5,30.51,SE,142,7.0,7.0,87,0.00,,,0.00,Wunderground v.1.15,2013-01-24 14:30:00,
2013-01-24 08:40:00,6.2,3.2,30.50,SSE,165,7.0,9.0,87,0.00,,,0.00,Wunderground v.1.15,2013-01-24 14:40:00,
2013-01-24 08:50:00,6.7,3.7,30.50,South,184,8.0,8.0,87,0.00,,,0.00,Wunderground v.1.15,2013-01-24 14:50:00,
2013-01-24 09:00:00,7.1,3.8,30.50,South,188,10.0,13.0,86,0.00,,,0.00,Wunderground v.1.15,2013-01-24 15:00:00,
2013-01-24 09:10:00,7.3,4.0,30.50,SSE,150,11.0,11.0,86,0.00,,,0.00,Wunderground v.1.15,2013-01-24 15:10:00,
2013-01-24 09:20:00,8.0,4.7,30.50,South,185,9.0,14.0,86,0.00,,,0.00,Wunderground v.1.15,2013-01-24 15:20:00,
2013-01-24 09:30:00,8.4,5.1,30.50,South,172,12.0,12.0,86,0.00,,,0.00,Wunderground v.1.15,2013-01-24 15:30:00,
2013-01-24 09:40:00,8.9,5.3,30.50,SSE,166,12.0,12.0,85,0.00,,,0.00,Wunderground v.1.15,2013-01-24 15:40:00,
2013-01-24 09:50:00,9.5,5.9,30.50,South,170,11.0,13.0,85,0.00,,,0.00,Wunderground v.1.15,2013-01-24 15:50:00,
2013-01-24 10:00:00,10.0,6.4,30.50,South,185,12.0,12.0,85,0.00,,,0.00,Wunderground v.1.15,2013-01-24 16:00:00,
2013-01-24 10:10:00,10.5,6.6,30.49,South,174,12.0,14.0,84,0.00,,,0.00,Wunderground v.1.15,2013-01-24 16:10:00,
2013-01-24 10:20:00,11.2,7.0,30.49,South,188,14.0,22.0,83,0.00,,,0.00,Wunderground v.1.15,2013-01-24 16:20:00,
2013-01-24 10:30:00,11.5,6.8,30.49,South,190,16.0,17.0,81,0.00,,,0.00,Wunderground v.1.15,2013-01-24 16:30:00,
2013-01-24 10:40:00,11.9,6.9,30.49,South,176,14.0,14.0,80,0.00,,,0.00,Wunderground v.1.15,2013-01-24 16:40:00,
2013-01-24 10:50:00,12.6,7.3,30.48,South,176,13.0,19.0,79,0.00,,,0.00,Wunderground v.1.15,2013-01-24 16:50:00,
2013-01-24 11:00:00,13.5,7.9,30.48,SSE,168,14.0,14.0,78,0.00,,,0.00,Wunderground v.1.15,2013-01-24 17:00:00,
2013-01-24 11:10:00,14.3,8.1,30.48,South,182,13.0,16.0,76,0.00,,,0.00,Wunderground v.1.15,2013-01-24 17:10:00,
2013-01-24 11:20:00,14.7,7.9,30.47,SSE,163,13.0,13.0,74,0.00,,,0.00,Wunderground v.1.15,2013-01-24 17:20:00,
2013-01-24 11:30:00,14.9,7.2,30.47,South,181,15.0,15.0,71,0.00,,,0.00,Wunderground v.1.15,2013-01-24 17:30:00,
2013-01-24 11:40:00,15.1,7.1,30.47,South,184,14.0,14.0,70,0.00,,,0.00,Wunderground v.1.15,2013-01-24 17:40:00,
2013-01-24 11:50:00,15.3,6.9,30.46,SSE,167,13.0,16.0,69,0.00,,,0.00,Wunderground v.1.15,2013-01-24 17:50:00,
2013-01-24 12:00:00,15.8,7.1,30.45,South,191,13.0,17.0,68,0.00,,,0.00,Wunderground v.1.15,2013-01-24 18:00:00,
2013-01-24 12:10:00,15.6,6.9,30.44,South,172,13.0,17.0,68,0.00,,,0.00,Wunderground v.1.15,2013-01-24 18:10:00,
2013-01-24 12:20:00,15.8,6.8,30.43,South,174,13.0,13.0,67,0.00,,,0.00,Wunderground v.1.15,2013-01-24 18:20:00,
2013-01-24 12:30:00,16.1,7.1,30.41,South,179,13.0,13.0,67,0.00,,,0.00,Wunderground v.1.15,2013-01-24 18:30:00,
2013-01-24 12:40:00,16.2,7.2,30.41,South,190,15.0,15.0,67,0.00,,,0.00,Wunderground v.1.15,2013-01-24 18:40:00,
2013-01-24 12:50:00,16.7,7.3,30.39,SSE,165,13.0,17.0,66,0.00,,,0.00,Wunderground v.1.15,2013-01-24 18:50:00,
2013-01-24 13:00:00,16.9,7.2,30.39,South,175,15.0,15.0,65,0.00,,,0.00,Wunderground v.1.15,2013-01-24 19:00:00,
2013-01-24 13:10:00,17.3,7.9,30.37,SSE,166,13.0,13.0,66,0.00,,,0.00,Wunderground v.1.15,2013-01-24 19:10:00,
2013-01-24 13:20:00,17.6,8.2,30.37,SSW,193,14.0,14.0,66,0.00,,,0.00,Wunderground v.1.15,2013-01-24 19:20:00,
2013-01-24 13:30:00,18.2,9.1,30.36,South,187,15.0,19.0,67,0.00,,,0.00,Wunderground v.1.15,2013-01-24 19:30:00,
2013-01-24 13:40:00,18.9,9.1,30.35,SSW,195,16.0,21.0,65,0.00,,,0.00,Wunderground v.1.15,2013-01-24 19:40:00,
2013-01-24 13:50:00,18.8,9.0,30.34,South,185,18.0,21.0,65,0.00,,,0.00,Wunderground v.1.15,2013-01-24 19:50:00,
2013-01-24 14:00:00,19.4,9.5,30.34,SSE,163,15.0,16.0,65,0.00,,,0.00,Wunderground v.1.15,2013-01-24 20:00:00,
2013-01-24 14:10:00,20.0,9.8,30.34,SSE,160,17.0,17.0,64,0.00,,,0.00,Wunderground v.1.15,2013-01-24 20:10:00,
2013-01-24 14:20:00,20.1,9.9,30.34,SW,219,16.0,17.0,64,0.00,,,0.00,Wunderground v.1.15,2013-01-24 20:20:00,
2013-01-24 14:30:00,20.4,10.5,30.32,SSW,193,15.0,21.0,65,0.00,,,0.00,Wunderground v.1.15,2013-01-24 20:30:00,
2013-01-24 14:40:00,20.4,10.8,30.34,SSW,199,17.0,18.0,66,0.00,,,0.00,Wunderground v.1.15,2013-01-24 20:40:00,
2013-01-24 14:50:00,20.4,10.8,30.33,SSW,193,16.0,16.0,66,0.00,,,0.00,Wunderground v.1.15,2013-01-24 20:50:00,
2013-01-24 15:00:00,20.9,11.7,30.32,SSW,199,15.0,18.0,67,0.00,,,0.00,Wunderground v.1.15,2013-01-24 21:00:00,
2013-01-24 15:10:00,21.8,12.2,30.31,South,188,15.0,15.0,66,0.00,,,0.00,Wunderground v.1.15,2013-01-24 21:10:00,
2013-01-24 15:20:00,21.4,11.8,30.32,SSW,196,15.0,18.0,66,0.00,,,0.00,Wunderground v.1.15,2013-01-24 21:20:00,
2013-01-24 15:30:00,21.3,12.0,30.31,SSW,193,14.0,14.0,67,0.00,,,0.00,Wunderground v.1.15,2013-01-24 21:30:00,
2013-01-24 15:40:00,21.7,12.8,30.31,SSW,200,13.0,13.0,68,0.00,,,0.00,Wunderground v.1.15,2013-01-24 21:40:00,
2013-01-24 15:50:00,22.0,13.0,30.30,SSW,205,14.0,16.0,68,0.00,,,0.00,Wunderground v.1.15,2013-01-24 21:50:00,
2013-01-24 16:00:00,21.9,13.3,30.28,South,184,14.0,16.0,69,0.00,,,0.00,Wunderground v.1.15,2013-01-24 22:00:00,
2013-01-24 16:10:00,22.0,13.4,30.29,SSW,194,14.0,15.0,69,0.00,,,0.00,Wunderground v.1.15,2013-01-24 22:10:00,
2013-01-24 16:20:00,22.6,13.6,30.29,SSW,201,12.0,15.0,68,0.00,,,0.00,Wunderground v.1.15,2013-01-24 22:20:00,
2013-01-24 16:30:00,22.6,14.0,30.28,South,191,15.0,15.0,69,0.00,,,0.00,Wunderground v.1.15,2013-01-24 22:30:00,
2013-01-24 16:40:00,23.4,14.4,30.28,South,169,14.0,14.0,68,0.00,,,0.00,Wunderground v.1.15,2013-01-24 22:40:00,
2013-01-24 16:50:00,23.8,14.8,30.28,SSW,211,14.0,17.0,68,0.00,,,0.00,Wunderground v.1.15,2013-01-24 22:50:00,
2013-01-24 17:00:00,23.8,14.8,30.28,SSW,199,14.0,14.0,68,0.00,,,0.00,Wunderground v.1.15,2013-01-24 23:00:00,
2013-01-24 17:10:00,23.6,14.9,30.28,SSW,197,12.0,17.0,69,0.00,,,0.00,Wunderground v.1.15,2013-01-24 23:10:00,
2013-01-24 17:20:00,23.4,15.1,30.28,SSW,198,12.0,12.0,70,0.00,,,0.00,Wunderground v.1.15,2013-01-24 23:20:00,
2013-01-24 17:30:00,22.9,14.9,30.29,SSW,194,11.0,11.0,71,0.00,,,0.00,Wunderground v.1.15,2013-01-24 23:30:00,
2013-01-24 17:40:00,22.6,14.6,30.30,SSW,200,11.0,12.0,71,0.00,,,0.00,Wunderground v.1.15,2013-01-24 23:40:00,
2013-01-24 17:50:00,22.4,15.1,30.30,SSW,193,9.0,10.0,73,0.00,,,0.00,Wunderground v.1.15,2013-01-24 23:50:00,
2013-01-24 18:00:00,22.2,14.9,30.30,SSW,200,9.0,9.0,73,0.00,,,0.00,Wunderground v.1.15,2013-01-25 00:00:00,
2013-01-24 18:10:00,21.9,14.9,30.30,SSW,199,9.0,9.0,74,0.00,,,0.00,Wunderground v.1.15,2013-01-25 00:10:00,
2013-01-24 18:20:00,21.6,14.6,30.30,SSW,206,7.0,7.0,74,0.00,,,0.00,Wunderground v.1.15,2013-01-25 00:20:00,
2013-01-24 18:30:00,21.2,14.5,30.30,SSW,203,7.0,7.0,75,0.00,,,0.00,Wunderground v.1.15,2013-01-25 00:30:00,
2013-01-24 18:40:00,21.1,14.7,30.31,SSW,203,7.0,7.0,76,0.00,,,0.00,Wunderground v.1.15,2013-01-25 00:40:00,
2013-01-24 18:50:00,20.7,14.3,30.32,South,189,6.0,6.0,76,0.00,,,0.00,Wunderground v.1.15,2013-01-25 00:50:00,
2013-01-24 19:00:00,20.3,14.2,30.31,South,184,4.0,4.0,77,0.00,,,0.00,Wunderground v.1.15,2013-01-25 01:00:00,
2013-01-24 19:10:00,20.3,14.2,30.33,SSW,203,4.0,4.0,77,0.00,,,0.00,Wunderground v.1.15,2013-01-25 01:10:00,
2013-01-24 19:20:00,19.9,13.9,30.32,SW,217,4.0,13.0,77,0.00,,,0.00,Wunderground v.1.15,2013-01-25 01:20:00,
2013-01-24 19:30:00,20.1,14.3,30.32,SSW,205,6.0,13.0,78,0.00,,,0.00,Wunderground v.1.15,2013-01-25 01:30:00,
2013-01-24 19:40:00,19.9,14.4,30.32,SW,224,6.0,13.0,79,0.00,,,0.00,Wunderground v.1.15,2013-01-25 01:40:00,
2013-01-24 19:50:00,19.6,14.1,30.32,SSW,209,6.0,6.0,79,0.00,,,0.00,Wunderground v.1.15,2013-01-25 01:50:00,
2013-01-24 20:00:00,20.0,14.5,30.32,SW,221,5.0,13.0,79,0.00,,,0.00,Wunderground v.1.15,2013-01-25 02:00:00,
2013-01-24 20:10:00,19.9,14.7,30.33,SW,223,3.0,3.0,80,0.00,,,0.00,Wunderground v.1.15,2013-01-25 02:10:00,
2013-01-24 20:20:00,20.0,14.8,30.33,SW,214,3.0,13.0,80,0.00,,,0.00,Wunderground v.1.15,2013-01-25 02:20:00,
2013-01-24 20:30:00,20.5,15.3,30.33,WSW,258,2.0,2.0,80,0.00,,,0.00,Wunderground v.1.15,2013-01-25 02:30:00,
2013-01-24 20:40:00,20.6,15.4,30.33,WSW,255,2.0,2.0,80,0.00,,,0.00,Wunderground v.1.15,2013-01-25 02:40:00,
2013-01-24 20:50:00,21.0,15.8,30.34,SSW,212,2.0,13.0,80,0.00,,,0.00,Wunderground v.1.15,2013-01-25 02:50:00,
2013-01-24 21:00:00,21.3,16.1,30.34,WSW,255,2.0,2.0,80,0.00,,,0.00,Wunderground v.1.15,2013-01-25 03:00:00,
2013-01-24 21:10:00,22.1,16.9,30.34,West,261,1.0,13.0,80,0.00,,,0.00,Wunderground v.1.15,2013-01-25 03:10:00,
2013-01-24 21:20:00,22.5,17.0,30.34,WSW,252,1.0,13.0,79,0.00,,,0.00,Wunderground v.1.15,2013-01-25 03:20:00,
2013-01-24 21:30:00,22.9,17.4,30.34,SSW,200,1.0,13.0,79,0.00,,,0.00,Wunderground v.1.15,2013-01-25 03:30:00,
2013-01-24 21:40:00,23.5,17.9,30.34,West,260,2.0,2.0,79,0.00,,,0.00,Wunderground v.1.15,2013-01-25 03:40:00,
2013-01-24 21:50:00,23.9,18.0,30.34,WSW,257,2.0,13.0,78,0.00,,,0.00,Wunderground v.1.15,2013-01-25 03:50:00,
2013-01-24 22:00:00,24.2,18.0,30.35,West,266,2.0,13.0,77,0.00,,,0.00,Wunderground v.1.15,2013-01-25 04:00:00,
2013-01-24 22:10:00,24.5,18.3,30.35,West,271,2.0,13.0,77,0.00,,,0.00,Wunderground v.1.15,2013-01-25 04:10:00,
2013-01-24 22:20:00,24.9,18.7,30.35,NW,326,2.0,2.0,77,0.00,,,0.00,Wunderground v.1.15,2013-01-25 04:20:00,
2013-01-24 22:30:00,24.5,18.3,30.35,NW,319,2.0,13.0,77,0.00,,,0.00,Wunderground v.1.15,2013-01-25 04:30:00,
2013-01-24 22:40:00,24.3,18.1,30.36,WNW,295,2.0,2.0,77,0.00,,,0.00,Wunderground v.1.15,2013-01-25 04:40:00,
2013-01-24 22:50:00,24.8,18.6,30.36,NW,314,3.0,13.0,77,0.00,,,0.00,Wunderground v.1.15,2013-01-25 04:50:00,
2013-01-24 23:00:00,25.4,19.2,30.37,NW,307,3.0,13.0,77,0.00,,,0.00,Wunderground v.1.15,2013-01-25 05:00:00,
2013-01-24 23:10:00,26.0,19.5,30.38,NW,322,4.0,13.0,76,0.00,,,0.00,Wunderground v.1.15,2013-01-25 05:10:00,
2013-01-24 23:20:00,26.6,19.7,30.38,NW,319,5.0,13.0,75,0.00,,,0.00,Wunderground v.1.15,2013-01-25 05:20:00,
2013-01-24 23:30:00,28.6,20.7,30.38,NNW,330,6.0,13.0,72,0.00,,,0.00,Wunderground v.1.15,2013-01-25 05:30:00,
2013-01-24 23:40:00,29.4,20.5,30.37,NNW,333,9.0,13.0,69,0.00,,,0.00,Wunderground v.1.15,2013-01-25 05:40:00,
2013-01-24 23:50:00,29.4,20.5,30.38,NW,321,10.0,14.0,69,0.00,,,0.00,Wunderground v.1.15,2013-01-25 05:50:00,